This is the latest recevied weather packets stored in our database for station/object PD2BVG. If no packets are shown the sender has not sent any weather packets the latest 10 day(s).
| Time | Temp. | Humidity | Pressure | Rain* | Wind** | Luminosity | Snow |
|---|---|---|---|---|---|---|---|
| 1787389661 | 17.78° C | 83% | 1020.4 hPa | 0 mm | - | 491 W/m² | - |
| 1787389603 | 17.78° C | 83% | 1020.3 hPa | 0 mm | - | 491 W/m² | - |
| 1787389542 | 17.78° C | 83% | 1020.3 hPa | 0 mm | - | 485 W/m² | - |
| 1787389481 | 17.78° C | 83% | 1020.3 hPa | 0 mm | - | 477 W/m² | - |
| 1787389421 | 17.78° C | 83% | 1020.4 hPa | 0 mm | - | 470 W/m² | - |
| 1787389360 | 17.22° C | 83% | 1020.3 hPa | 0 mm | - | 454 W/m² | - |
| 1787389301 | 17.22° C | 83% | 1020.3 hPa | 0 mm | - | 454 W/m² | - |
| 1787389242 | 17.22° C | 83% | 1020.3 hPa | 0 mm | - | 447 W/m² | - |
| 1787389185 | 17.22° C | 83% | 1020.3 hPa | 0 mm | - | 382 W/m² | - |
| 1787389121 | 17.22° C | 83% | 1020.2 hPa | 0 mm | - | 382 W/m² | - |
| 1787389061 | 17.22° C | 83% | 1020.2 hPa | 0 mm | - | 382 W/m² | - |
| 1787389001 | 17.22° C | 83% | 1020.2 hPa | 0 mm | - | 382 W/m² | - |
| 1787388943 | 17.22° C | 83% | 1020.2 hPa | 0 mm | - | 382 W/m² | - |
| 1787388880 | 17.22° C | 83% | 1020.1 hPa | 0 mm | - | 382 W/m² | - |
| 1787388820 | 17.22° C | 83% | 1020.2 hPa | 0 mm | - | 382 W/m² | - |
| 1787388761 | 17.22° C | 83% | 1020.1 hPa | 0 mm | - | 69 W/m² | - |
| 1787388697 | 17.22° C | 81% | 1020.1 hPa | 0 mm | - | 364 W/m² | - |
| 1787388638 | 17.78° C | 81% | 1020.1 hPa | 0 mm | - | 364 W/m² | - |
| 1787388577 | 17.78° C | 81% | 1020.1 hPa | 0 mm | - | 76 W/m² | - |
| 1787388511 | 17.78° C | 81% | 1020 hPa | 0 mm | - | 76 W/m² | - |
| 1787388450 | 17.78° C | 81% | 1020.1 hPa | 0 mm | - | 76 W/m² | - |
| 1787388390 | 17.78° C | 81% | 1020.1 hPa | 0 mm | - | 76 W/m² | - |
| 1787388330 | 17.78° C | 81% | 1019.8 hPa | 0 mm | - | 53 W/m² | - |
| 1787388268 | 17.78° C | 81% | 1020 hPa | 0 mm | - | 53 W/m² | - |
| 1787388196 | 18.33° C | 81% | 1019.8 hPa | 0 mm | - | 53 W/m² | - |
* Rain latest hour (hover to see other rain measurements)
** Current wind speed in m/s (hover to see current wind gust speed)